Location: Unspecified
(0.0000°N, 0.0000°E)
Time: 16:45:28
(UTC+02:00)

Ariane H10-3 - Visible Passes

Search period start: 27 April 2017 00:00
Search period end: 07 May 2017 00:00
Orbit: 216 x 20252 km, 7.2° (Epoch: 25 April)

Date Brightness Start Highest point End Pass type
(mag) Time Alt. Az. Time Alt. Az. Time Alt. Az.
27 Apr 9.0 03:53:57 10° W 08:16:23 83° N 08:44:14 10° E visible
27 Apr 6.1 21:03:24 10° WSW 21:11:09 82° S 23:43:24 10° E visible
28 Apr 9.2 03:29:38 10° W 07:48:28 83° N 08:22:34 10° E visible
28 Apr 5.8 20:42:07 10° WSW 20:48:50 79° SSE 22:13:05 10° E visible
29 Apr 9.1 03:05:27 10° W 07:17:36 82° N 08:00:23 10° E visible
29 Apr 5.5 20:20:27 10° WSW 20:26:18 76° SSE 21:19:25 10° E visible
30 Apr 9.0 02:41:18 10° W 06:42:02 82° N 07:37:40 10° E visible
30 Apr 5.2 19:58:26 10° WSW 20:03:30 72° SSE 20:40:02 10° E visible
01 May 8.9 02:17:08 10° W 05:57:36 81° N 07:14:22 10° E visible
01 May 4.9 19:36:04 10° WSW 19:40:27 67° SSE 20:06:31 10° E visible
02 May 8.8 01:52:53 10° W 04:50:29 81° N 06:50:27 10° E visible
03 May 8.7 01:28:31 10° W 03:09:14 81° N 06:25:52 10° E visible
04 May 8.6 01:03:59 10° W 02:10:23 81° N 06:00:32 10° E visible
05 May 8.5 00:39:15 10° W 01:27:37 81° N 05:34:22 10° E visible
06 May 8.4 00:14:19 10° W 00:51:12 81° N 05:07:13 10° E visible
